Location: Unspecified
(41.1637°N, 24.2901°E)
Time: 09:44:17
(UTC+01:00)

ISS - Pass Details

Date: 24 October 2020
Orbit: 417 x 420 km, 51.6° (Epoch: 29 October)

Event Time Altitude Azimuth Distance (km) Brightness Sun altitude
Exits shadow 04:31:39 17° 138° (SE) 1,144 -1.2 -25.7°
Maximum altitude 04:31:55 17° 131° (SE) 1,139 -1.1 -25.6°
Drops below altitude 10° 04:34:10 10° 89° (E) 1,492 0.1 -25.2°
Sets 04:36:46 0° 68° (ENE) 2,360 1.3 -24.7°
